星链-4399 (STARLINK-4399 )

导读

STARLINK-4399是美国SpaceX公司星链(Starlink)星座中的互联网卫星,于2022年8月12日发射,隶属星链Group 4-16批次,质量约297千克,运行在约548公里高度的近地轨道。作为星链全球卫星互联网组网的一部分,它为全球偏远地区、移动场景等提供高速宽带接入服务,支撑星座覆盖与服务能力的扩张。

Basic Information
目录编号:
53469
目录名称:
STARLINK-4399
国际标识:
2022-099E
轨道中心:
EARTH
卫星名称:
星链-4399
卫星全名:
星链-4399 (STARLINK-4399 )
卫星状态:
在轨 (已飞行1484 天)
发射日期:
2022-08-12 UTC
国别 :
美国 (US)
星等 :
--
Orbit Information
数据来源 国际轨道数据
星历时间: 2026-09-04T02:07:36+0800
16小时前
查看轨道信息
半长轴: 6843.699km
偏心率: 0.0001131
轨道倾角: 97.286°
近地点辐角 95.082°
升交点赤经 4.717°
平近点角 265.055°
近地点: 464.787km
远地点: 466.337km
周期: 93.907分钟
每日圈数: 15.334388
Detailed Information
固有亮度:
5
最大亮度:
2.5
卫星平台:
Starlink v1.5
覆盖范围:
全球
运营商:
太空探索技术公司
运营商所在国:
美国
制造商(研发单位):
太空探索技术公司
制造商所在国:
美国
使用方式:
暂无
Satellite Introduction
星链(Starlink)计划是由太空探索技术公司(SpaceX)提出的一个巨型低轨卫星互联网星座项目,计划在2019年至2024年间在太空搭建由约1.2万颗卫星组成的“星链”网络,其中1584颗将部署在地球上空550千米处的近地轨道,并从2020年开始工作。该卫星仍在工作。
2D Orbit Map
3D Orbit Map
Orbit Altitude Analysis Chart
Orbit Inclination Analysis Chart
Orbit Comprehensive Analysis Chart
View Comprehensive Chart
Conjunction Data List
Event ID Objects TCA Miss Dist (km) Collision Risk Probability Collision Risk Index (CRI) Action
CDM_260905-164405-346906-970621
2026-09-05T
16:44:43+0000
0.430 km
远距离
2.255113E-4 高风险 0.82
CDM_260905-190505-346906-970621
2026-09-05T
19:05:39+0000
1.256 km
极远距离
9.256011E-6 低风险 0.54
CDM_260830-063305-346906-488122
OBJECT F (64881)
2026-08-30T
06:33:34+0000
1.908 km
极远距离
3.205724E-6 低风险 0.45
CDM_260904-225205-346906-634921
2026-09-04T
22:52:06+0000
2.399 km
极远距离
1.730973E-6 低风险 0.4
CDM_260905-203905-346906-970621
2026-09-05T
20:39:37+0000
2.658 km
极远距离
1.251347E-6 低风险 0.37
CDM_260904-202304-315905-346921
2026-09-04T
20:23:44+0000
2.997 km
极远距离
1.1663E-6 低风险 0.36
CDM_260905-181805-346906-970621
2026-09-05T
18:18:41+0000
2.990 km
极远距离
1.067457E-6 低风险 0.36
CDM_260903-140204-843105-346921
2026-09-03T
14:02:47+0000
2.832 km
极远距离
9.719555E-7 极低风险 0.35
CDM_260906-181704-832505-346921
2026-09-06T
18:17:50+0000
2.989 km
极远距离
8.600396E-7 极低风险 0.34
CDM_260906-042805-346906-056221
2026-09-06T
04:28:32+0000
2.889 km
极远距离
7.603919E-7 极低风险 0.33